Weather History for Auburn, IN

Change the Weather History Date:

Wednesday, January 16, 2013

  Actual Average (KFWA) Record (KFWA)
Temperature  
Mean Temperature 28 °F 25 °F  
Max Temperature 35 °F 32 °F 56 °F (1949)
Min Temperature 21 °F 17 °F -19 °F (1972)
Degree Days  
Heating Degree Days 37 40  
Month to date heating degree days 639  
Since 1 July heating degree days 2967  
Cooling Degree Days 0 0  
Month to date cooling degree days 0  
Year to date cooling degree days 0  
Moisture  
Dew Point 21 °F    
Average Humidity 77    
Maximum Humidity 93    
Minimum Humidity 44    
Precipitation  
Precipitation 0.00 in 0.07 in 1.08 in (1952)
Month to date precipitation 1.24  
Year to date precipitation 1.24  
Snow  
Snow 0.00 in 0.40 in 3.60 in (1994)
Month to date snowfall 5.1  
Since 1 July snowfall 15.7  
Snow Depth -    
Sea Level Pressure  
Sea Level Pressure 29.99 in    
Wind  
Wind Speed 3 mph (WSW)    
Max Wind Speed 14 mph    
Max Gust Speed 22 mph    
Visibility 9 miles    
Events      
T = Trace of Precipitation, MM = Missing Value Source: NWS Daily Summary

Daily Weather History Graph

Daily Weather History Graph

Search for Another Location

Airport:

Trip Planner

Search our weather history database for the weather conditions in past years. The results will help you decide how hot, cold, wet, or windy it might be!

Date:

Astronomy

Jan. 16, 2013 Rise Set
Actual Time 8:03 AM EST 5:37 PM EST
Civil Twilight 7:32 AM EST 6:07 PM EST
Nautical Twilight 6:58 AM EST 6:41 PM EST
Astronomical Twilight 6:25 AM EST 7:14 PM EST
Moon 10:35 AM EST (1/16) 11:32 PM EST (1/16)
Length of Visible Light 10h 34m
Length of Day
9h 34m
Waxing Crescent, 28% of the Moon is Illuminated
Jan 16
Waxing Crescent
Jan 18
First Quarter
Jan 26
Full
Feb 3
Last Quarter
Feb 10
New

Hourly Weather History & Observations

Time (EST) Temp. Windchill Dew Point Humidity Pressure Visibility Wind Dir Wind Speed Gust Speed Precip Events Conditions
12:15 AM 23.0 °F - 19.4 °F 86% 30.11 in 10.0 mi Calm Calm - N/A   Clear
12:35 AM 23.0 °F - 21.2 °F 93% 30.11 in 10.0 mi Calm Calm - N/A   Clear
12:55 AM 23.0 °F - 19.4 °F 86% 30.10 in 10.0 mi Calm Calm - N/A   Clear
1:15 AM 23.0 °F - 21.2 °F 93% 30.08 in 10.0 mi Calm Calm - N/A   Scattered Clouds
1:35 AM 23.0 °F - 19.4 °F 86% 30.07 in 10.0 mi Calm Calm - N/A   Clear
1:55 AM 21.2 °F - 19.4 °F 93% 30.07 in 7.0 mi Calm Calm - N/A   Clear
2:15 AM 21.2 °F 14.9 °F 19.4 °F 93% 30.08 in 7.0 mi NW 4.6 mph - N/A   Clear
2:35 AM 23.0 °F - 19.4 °F 86% 30.07 in 7.0 mi Calm Calm - N/A   Clear
2:55 AM 23.0 °F - 19.4 °F 86% 30.07 in 7.0 mi Calm Calm - N/A   Clear
3:35 AM 23.0 °F - 19.4 °F 86% 30.05 in 7.0 mi Calm Calm - N/A   Clear
4:15 AM 23.0 °F - 21.2 °F 93% 30.05 in 7.0 mi Calm Calm - N/A   Overcast
4:35 AM 23.0 °F - 21.2 °F 93% 30.04 in 7.0 mi Calm Calm - N/A   Overcast
4:55 AM 23.0 °F - 21.2 °F 93% 30.02 in 7.0 mi Calm Calm - N/A   Overcast
5:15 AM 23.0 °F - 21.2 °F 93% 30.01 in 7.0 mi Calm Calm - N/A   Overcast
5:35 AM 23.0 °F - 21.2 °F 93% 30.01 in 7.0 mi Calm Calm - N/A   Mostly Cloudy
5:55 AM 23.0 °F - 19.4 °F 86% 30.00 in 5.0 mi Calm Calm - N/A   Scattered Clouds
6:35 AM 23.0 °F - 21.2 °F 93% 30.00 in 5.0 mi Calm Calm - N/A   Overcast
7:35 AM 23.0 °F - 21.2 °F 93% 29.98 in 5.0 mi Calm Calm - N/A   Mostly Cloudy
7:55 AM 23.0 °F - 21.2 °F 93% 29.98 in 5.0 mi Calm Calm - N/A   Mostly Cloudy
8:15 AM 23.0 °F - 21.2 °F 93% 29.98 in 5.0 mi Calm Calm - N/A   Mostly Cloudy
8:35 AM 23.0 °F - 19.4 °F 86% 29.98 in 5.0 mi Calm Calm - N/A   Scattered Clouds
8:55 AM 23.0 °F 18.4 °F 21.2 °F 93% 29.97 in 5.0 mi WSW 3.5 mph - N/A   Clear
9:15 AM 24.8 °F 20.5 °F 21.2 °F 86% 29.98 in 5.0 mi WSW 3.5 mph - N/A   Clear
9:35 AM 26.6 °F 21.2 °F 21.2 °F 80% 29.99 in 10.0 mi SW 4.6 mph - N/A   Clear
9:55 AM 28.4 °F 20.4 °F 21.2 °F 74% 30.00 in 10.0 mi WSW 8.1 mph - N/A   Clear
10:15 AM 28.4 °F 19.7 °F 23.0 °F 80% 30.00 in 10.0 mi WSW 9.2 mph - N/A   Clear
10:35 AM 30.2 °F 21.9 °F 23.0 °F 75% 29.99 in 10.0 mi WSW 9.2 mph - N/A   Clear
11:35 AM 32.0 °F 23.0 °F 21.2 °F 64% 29.97 in 10.0 mi WSW 11.5 mph 16.1 mph N/A   Clear
11:55 AM 32.0 °F 23.6 °F 21.2 °F 64% 29.96 in 10.0 mi WSW 10.4 mph 16.1 mph N/A   Clear
12:15 PM 32.0 °F 23.0 °F 21.2 °F 64% 29.94 in 10.0 mi West 11.5 mph - N/A   Clear
12:35 PM 32.0 °F 23.6 °F 19.4 °F 60% 29.92 in 10.0 mi WSW 10.4 mph - N/A   Clear
12:55 PM 33.8 °F 25.8 °F 17.6 °F 52% 29.91 in 10.0 mi WSW 10.4 mph 16.1 mph N/A   Clear
4:15 PM 35.6 °F 28.0 °F 17.6 °F 48% 29.88 in 10.0 mi WSW 10.4 mph 18.4 mph N/A   Clear
4:35 PM 35.6 °F 26.6 °F 15.8 °F 44% 29.89 in 10.0 mi WSW 13.8 mph 19.6 mph N/A   Clear
4:55 PM 33.8 °F 28.6 °F 19.4 °F 56% 29.89 in 10.0 mi SW 5.8 mph - N/A   Clear
5:15 PM 33.8 °F 27.7 °F 19.4 °F 56% 29.91 in 10.0 mi SW 6.9 mph - N/A   Clear
5:35 PM 33.8 °F 27.0 °F 19.4 °F 56% 29.92 in 10.0 mi SW 8.1 mph - N/A   Scattered Clouds
5:55 PM 33.8 °F 27.0 °F 21.2 °F 60% 29.92 in 10.0 mi SW 8.1 mph - N/A   Mostly Cloudy
6:15 PM 32.0 °F 24.8 °F 21.2 °F 64% 29.93 in 10.0 mi SW 8.1 mph - N/A   Overcast
7:15 PM 32.0 °F 24.2 °F 21.2 °F 64% 29.93 in 10.0 mi SW 9.2 mph - N/A   Overcast
7:35 PM 32.0 °F 24.8 °F 21.2 °F 64% 29.93 in 10.0 mi SW 8.1 mph 17.3 mph N/A   Overcast
7:55 PM 32.0 °F 24.8 °F 23.0 °F 69% 29.93 in 10.0 mi SW 8.1 mph - N/A   Overcast
8:15 PM 33.8 °F 27.0 °F 23.0 °F 65% 29.95 in 10.0 mi WSW 8.1 mph 16.1 mph N/A   Overcast
8:35 PM 33.8 °F 25.8 °F 23.0 °F 65% 29.96 in 10.0 mi WSW 10.4 mph 16.1 mph N/A   Overcast
8:55 PM 33.8 °F 26.4 °F 23.0 °F 65% 29.96 in 10.0 mi WSW 9.2 mph 17.3 mph N/A   Overcast
9:15 PM 33.8 °F 24.3 °F 24.8 °F 70% 29.97 in 10.0 mi WSW 13.8 mph 21.9 mph N/A   Overcast
9:55 PM 32.0 °F 22.1 °F 26.6 °F 80% 29.99 in 10.0 mi West 13.8 mph 18.4 mph N/A   Overcast
10:15 PM 33.8 °F 25.8 °F 26.6 °F 75% 29.99 in 10.0 mi West 10.4 mph 18.4 mph N/A   Overcast
10:35 PM 33.8 °F 26.4 °F 26.6 °F 75% 29.99 in 10.0 mi WSW 9.2 mph 19.6 mph N/A   Overcast
10:55 PM 33.8 °F 25.3 °F 26.6 °F 75% 29.99 in 10.0 mi West 11.5 mph 18.4 mph N/A   Overcast
11:55 PM 33.8 °F 25.8 °F 26.6 °F 75% 30.00 in 10.0 mi West 10.4 mph 18.4 mph N/A   Overcast